Time,TemperatureF,DewpointF,PressureIn,WindDirection,WindDirectionDegrees,WindSpeedMPH,WindSpeedGustMPH,Humidity,HourlyPrecipIn,Conditions,Clouds,dailyrainin,SoftwareType,DateUTC
2013-04-17 00:03:00,64.0,60.0,30.14,North,5,0.0,0.0,87,0.00,,,0.00,,2013-04-17 04:03:00,
2013-04-17 00:13:00,64.0,60.0,30.14,North,5,0.0,0.0,87,0.00,,,0.00,,2013-04-17 04:13:00,
2013-04-17 00:23:00,64.0,60.0,30.13,North,5,0.0,0.0,87,0.00,,,0.00,,2013-04-17 04:23:00,
2013-04-17 00:33:00,63.0,59.0,30.14,North,5,0.0,0.0,88,0.00,,,0.00,,2013-04-17 04:33:00,
2013-04-17 00:42:00,63.0,59.0,30.14,North,5,0.0,0.0,88,0.00,,,0.00,,2013-04-17 04:42:00,
2013-04-17 00:52:00,63.0,60.0,30.14,North,5,0.0,0.0,89,0.00,,,0.00,,2013-04-17 04:52:00,
2013-04-17 01:03:00,62.0,59.0,30.15,North,5,0.0,0.0,90,0.00,,,0.00,,2013-04-17 05:03:00,
2013-04-17 01:12:00,62.0,59.0,30.15,North,5,0.0,0.0,90,0.00,,,0.00,,2013-04-17 05:12:00,
2013-04-17 01:22:00,62.0,59.0,30.14,North,5,0.0,0.0,91,0.00,,,0.00,,2013-04-17 05:22:00,
2013-04-17 01:32:00,63.0,61.0,30.14,North,5,0.0,0.0,92,0.00,,,0.00,,2013-04-17 05:32:00,
2013-04-17 01:43:00,63.0,61.0,30.14,North,5,0.0,0.0,92,0.00,,,0.00,,2013-04-17 05:43:00,
2013-04-17 01:52:00,63.0,60.0,30.14,North,5,0.0,0.0,91,0.00,,,0.00,,2013-04-17 05:52:00,
2013-04-17 02:02:00,63.0,60.0,30.14,North,5,0.0,0.0,91,0.00,,,0.00,,2013-04-17 06:02:00,
2013-04-17 02:12:00,63.0,60.0,30.14,North,5,0.0,0.0,91,0.00,,,0.00,,2013-04-17 06:12:00,
2013-04-17 02:22:00,63.0,60.0,30.14,North,5,0.0,0.0,90,0.00,,,0.00,,2013-04-17 06:22:00,
2013-04-17 02:32:00,63.0,60.0,30.13,North,5,0.0,0.0,90,0.00,,,0.00,,2013-04-17 06:32:00,
2013-04-17 02:42:00,63.0,60.0,30.13,North,5,0.0,0.0,90,0.00,,,0.00,,2013-04-17 06:42:00,
2013-04-17 02:52:00,63.0,60.0,30.13,North,5,0.0,0.0,90,0.00,,,0.00,,2013-04-17 06:52:00,
2013-04-17 03:02:00,62.0,59.0,30.14,North,5,0.0,1.0,90,0.00,,,0.00,,2013-04-17 07:02:00,
2013-04-17 03:12:00,62.0,59.0,30.14,North,5,0.0,1.0,90,0.00,,,0.00,,2013-04-17 07:12:00,
2013-04-17 03:22:00,62.0,59.0,30.14,North,5,0.0,0.0,91,0.00,,,0.00,,2013-04-17 07:22:00,
2013-04-17 03:32:00,61.0,58.0,30.14,North,5,0.0,0.0,91,0.00,,,0.00,,2013-04-17 07:32:00,
2013-04-17 03:42:00,61.0,58.0,30.14,North,5,0.0,0.0,91,0.00,,,0.00,,2013-04-17 07:42:00,
2013-04-17 03:52:00,61.0,59.0,30.14,North,5,0.0,1.0,92,0.00,,,0.00,,2013-04-17 07:52:00,
2013-04-17 04:02:00,61.0,59.0,30.15,North,5,0.0,0.0,92,0.00,,,0.00,,2013-04-17 08:02:00,
2013-04-17 04:12:00,61.0,59.0,30.15,North,5,0.0,0.0,92,0.00,,,0.00,,2013-04-17 08:12:00,
2013-04-17 04:22:00,61.0,59.0,30.14,North,5,0.0,1.0,92,0.00,,,0.00,,2013-04-17 08:22:00,
2013-04-17 04:32:00,61.0,59.0,30.15,North,5,0.0,0.0,92,0.00,,,0.00,,2013-04-17 08:32:00,
2013-04-17 04:42:00,61.0,59.0,30.15,North,5,0.0,0.0,92,0.00,,,0.00,,2013-04-17 08:42:00,
2013-04-17 04:52:00,61.0,59.0,30.15,North,5,0.0,0.0,92,0.00,,,0.00,,2013-04-17 08:52:00,
2013-04-17 05:02:00,60.0,58.0,30.15,North,5,0.0,0.0,93,0.00,,,0.00,,2013-04-17 09:02:00,
2013-04-17 05:12:00,60.0,58.0,30.15,North,5,0.0,0.0,93,0.00,,,0.00,,2013-04-17 09:12:00,
2013-04-17 05:22:00,60.0,58.0,30.16,North,5,0.0,0.0,93,0.00,,,0.00,,2013-04-17 09:22:00,
2013-04-17 05:33:00,60.0,58.0,30.16,North,5,0.0,0.0,94,0.00,,,0.00,,2013-04-17 09:33:00,
2013-04-17 05:42:00,60.0,58.0,30.16,North,5,0.0,0.0,94,0.00,,,0.00,,2013-04-17 09:42:00,
2013-04-17 05:52:00,60.0,58.0,30.15,North,5,0.0,0.0,94,0.00,,,0.00,,2013-04-17 09:52:00,
2013-04-17 06:03:00,59.0,57.0,30.15,North,5,0.0,0.0,94,0.00,,,0.00,,2013-04-17 10:03:00,
2013-04-17 06:12:00,59.0,57.0,30.15,North,5,0.0,0.0,94,0.00,,,0.00,,2013-04-17 10:12:00,
2013-04-17 06:23:00,59.0,57.0,30.15,North,5,0.0,0.0,94,0.00,,,0.00,,2013-04-17 10:23:00,
2013-04-17 06:32:00,59.0,57.0,30.15,North,5,0.0,0.0,94,0.00,,,0.00,,2013-04-17 10:32:00,
2013-04-17 06:43:00,59.0,57.0,30.15,North,5,0.0,0.0,94,0.00,,,0.00,,2013-04-17 10:43:00,
2013-04-17 06:52:00,59.0,57.0,30.15,North,5,0.0,0.0,94,0.00,,,0.00,,2013-04-17 10:52:00,
2013-04-17 07:02:00,59.0,58.0,30.16,North,5,0.0,0.0,95,0.00,,,0.00,,2013-04-17 11:02:00,
2013-04-17 07:12:00,59.0,58.0,30.16,North,5,0.0,0.0,95,0.00,,,0.00,,2013-04-17 11:12:00,
2013-04-17 07:22:00,59.0,58.0,30.16,North,5,0.0,0.0,95,0.00,,,0.00,,2013-04-17 11:22:00,
2013-04-17 07:32:00,59.0,58.0,30.16,North,5,0.0,0.0,95,0.00,,,0.00,,2013-04-17 11:32:00,
2013-04-17 07:42:00,59.0,58.0,30.16,North,5,0.0,0.0,95,0.00,,,0.00,,2013-04-17 11:42:00,
2013-04-17 07:52:00,59.0,58.0,30.17,North,5,0.0,0.0,96,0.00,,,0.00,,2013-04-17 11:52:00,
2013-04-17 08:03:00,59.0,58.0,30.16,North,5,0.0,0.0,96,0.00,,,0.00,,2013-04-17 12:03:00,
2013-04-17 08:12:00,59.0,58.0,30.16,North,5,0.0,0.0,96,0.00,,,0.00,,2013-04-17 12:12:00,
2013-04-17 08:22:00,60.0,59.0,30.17,North,5,0.0,1.0,97,0.00,,,0.00,,2013-04-17 12:22:00,
2013-04-17 08:32:00,61.0,60.0,30.17,North,5,1.0,4.0,97,0.00,,,0.00,,2013-04-17 12:32:00,
2013-04-17 08:42:00,61.0,60.0,30.17,North,5,1.0,4.0,97,0.00,,,0.00,,2013-04-17 12:42:00,
2013-04-17 08:52:00,62.0,61.0,30.17,North,5,0.0,3.0,97,0.00,,,0.00,,2013-04-17 12:52:00,
2013-04-17 09:02:00,63.0,61.0,30.18,North,5,0.0,2.0,93,0.00,,,0.00,,2013-04-17 13:02:00,
2013-04-17 09:12:00,63.0,61.0,30.18,North,5,0.0,2.0,93,0.00,,,0.00,,2013-04-17 13:12:00,
2013-04-17 09:22:00,64.0,61.0,30.17,North,5,0.0,2.0,90,0.00,,,0.00,,2013-04-17 13:22:00,
2013-04-17 09:32:00,65.0,61.0,30.17,North,5,1.0,3.0,88,0.00,,,0.00,,2013-04-17 13:32:00,
2013-04-17 09:42:00,65.0,61.0,30.17,North,5,1.0,3.0,88,0.00,,,0.00,,2013-04-17 13:42:00,
2013-04-17 09:52:00,67.0,62.0,30.17,North,5,1.0,3.0,83,0.00,,,0.00,,2013-04-17 13:52:00,
2013-04-17 10:02:00,68.0,62.0,30.16,North,5,0.0,4.0,81,0.00,,,0.00,,2013-04-17 14:02:00,
2013-04-17 10:12:00,68.0,62.0,30.16,North,5,0.0,4.0,81,0.00,,,0.00,,2013-04-17 14:12:00,
2013-04-17 10:22:00,70.0,62.0,30.16,North,5,2.0,6.0,75,0.00,,,0.00,,2013-04-17 14:22:00,
2013-04-17 10:32:00,72.0,62.0,30.15,North,5,1.0,9.0,70,0.00,,,0.00,,2013-04-17 14:32:00,
2013-04-17 10:42:00,74.0,63.0,30.14,North,5,0.0,5.0,69,0.00,,,0.00,,2013-04-17 14:42:00,
2013-04-17 10:52:00,74.0,63.0,30.14,North,5,0.0,5.0,69,0.00,,,0.00,,2013-04-17 14:52:00,
2013-04-17 11:02:00,76.0,63.0,30.14,North,5,1.0,5.0,65,0.00,,,0.00,,2013-04-17 15:02:00,
2013-04-17 11:12:00,76.0,63.0,30.14,North,5,1.0,6.0,65,0.00,,,0.00,,2013-04-17 15:12:00,
2013-04-17 11:22:00,76.0,63.0,30.14,North,5,1.0,6.0,65,0.00,,,0.00,,2013-04-17 15:22:00,
2013-04-17 11:33:00,76.0,63.0,30.13,North,5,2.0,7.0,64,0.00,,,0.00,,2013-04-17 15:33:00,
2013-04-17 11:43:00,76.0,63.0,30.13,North,5,2.0,7.0,64,0.00,,,0.00,,2013-04-17 15:43:00,
2013-04-17 11:53:00,77.0,63.0,30.13,North,5,1.0,7.0,63,0.00,,,0.00,,2013-04-17 15:53:00,
2013-04-17 12:03:00,77.0,63.0,30.13,North,5,1.0,7.0,63,0.00,,,0.00,,2013-04-17 16:03:00,
2013-04-17 12:12:00,77.0,63.0,30.13,North,5,1.0,7.0,63,0.00,,,0.00,,2013-04-17 16:12:00,
2013-04-17 12:23:00,78.0,62.0,30.13,North,5,3.0,7.0,59,0.00,,,0.00,,2013-04-17 16:23:00,
2013-04-17 12:32:00,79.0,63.0,30.13,North,5,2.0,9.0,59,0.00,,,0.00,,2013-04-17 16:32:00,
2013-04-17 12:42:00,79.0,63.0,30.13,North,5,2.0,9.0,59,0.00,,,0.00,,2013-04-17 16:42:00,
2013-04-17 12:52:00,78.0,62.0,30.12,North,5,0.0,6.0,59,0.00,,,0.00,,2013-04-17 16:52:00,
2013-04-17 13:02:00,78.0,62.0,30.12,North,5,0.0,6.0,59,0.00,,,0.00,,2013-04-17 17:02:00,
2013-04-17 13:12:00,78.0,62.0,30.12,North,5,0.0,6.0,59,0.00,,,0.00,,2013-04-17 17:12:00,
2013-04-17 13:22:00,80.0,64.0,30.10,North,5,3.0,6.0,58,0.00,,,0.00,,2013-04-17 17:22:00,
2013-04-17 13:33:00,80.0,64.0,30.09,North,5,2.0,7.0,58,0.00,,,0.00,,2013-04-17 17:33:00,
2013-04-17 13:42:00,80.0,64.0,30.09,North,5,2.0,7.0,58,0.00,,,0.00,,2013-04-17 17:42:00,
2013-04-17 13:52:00,81.0,63.0,30.09,North,5,1.0,5.0,55,0.00,,,0.00,,2013-04-17 17:52:00,
2013-04-17 14:02:00,80.0,63.0,30.09,North,5,1.0,5.0,56,0.00,,,0.00,,2013-04-17 18:02:00,
2013-04-17 14:12:00,80.0,63.0,30.09,North,5,1.0,5.0,56,0.00,,,0.00,,2013-04-17 18:12:00,
2013-04-17 14:22:00,79.0,63.0,30.09,North,5,0.0,3.0,59,0.00,,,0.00,,2013-04-17 18:22:00,
2013-04-17 14:32:00,79.0,64.0,30.09,North,5,1.0,3.0,60,0.00,,,0.00,,2013-04-17 18:32:00,
2013-04-17 14:42:00,79.0,64.0,30.09,North,5,1.0,3.0,60,0.00,,,0.00,,2013-04-17 18:42:00,
2013-04-17 14:52:00,79.0,64.0,30.09,North,5,1.0,3.0,60,0.00,,,0.00,,2013-04-17 18:52:00,
2013-04-17 15:02:00,73.0,64.0,30.10,North,5,0.0,1.0,74,0.03,,,0.03,,2013-04-17 19:02:00,
2013-04-17 15:12:00,73.0,64.0,30.10,North,5,0.0,1.0,74,0.03,,,0.03,,2013-04-17 19:12:00,
2013-04-17 15:22:00,73.0,64.0,30.10,North,5,0.0,1.0,74,0.03,,,0.03,,2013-04-17 19:22:00,
2013-04-17 15:32:00,69.0,65.0,30.10,North,5,0.0,1.0,87,0.14,,,0.14,,2013-04-17 19:32:00,
2013-04-17 15:42:00,69.0,65.0,30.10,North,5,0.0,1.0,87,0.14,,,0.14,,2013-04-17 19:42:00,
2013-04-17 15:52:00,68.0,64.0,30.10,North,5,0.0,2.0,87,0.15,,,0.18,,2013-04-17 19:52:00,
2013-04-17 16:03:00,67.0,64.0,30.11,North,5,0.0,0.0,89,0.15,,,0.18,,2013-04-17 20:03:00,
2013-04-17 16:12:00,67.0,64.0,30.11,North,5,0.0,0.0,89,0.15,,,0.18,,2013-04-17 20:12:00,
2013-04-17 16:22:00,66.0,63.0,30.11,North,5,0.0,3.0,91,0.14,,,0.18,,2013-04-17 20:22:00,
2013-04-17 16:33:00,66.0,64.0,30.10,North,5,0.0,2.0,93,0.05,,,0.19,,2013-04-17 20:33:00,
2013-04-17 16:42:00,66.0,64.0,30.10,North,5,0.0,2.0,93,0.05,,,0.19,,2013-04-17 20:42:00,
2013-04-17 16:52:00,66.0,64.0,30.10,North,5,0.0,2.0,93,0.05,,,0.19,,2013-04-17 20:52:00,
2013-04-17 17:03:00,65.0,63.0,30.11,North,5,0.0,2.0,92,0.04,,,0.22,,2013-04-17 21:03:00,
2013-04-17 17:12:00,65.0,63.0,30.11,North,5,0.0,2.0,92,0.04,,,0.22,,2013-04-17 21:12:00,
2013-04-17 17:22:00,65.0,63.0,30.12,North,5,0.0,4.0,92,0.05,,,0.23,,2013-04-17 21:22:00,
2013-04-17 17:33:00,64.0,62.0,30.13,North,5,0.0,2.0,93,0.06,,,0.25,,2013-04-17 21:33:00,
2013-04-17 17:42:00,64.0,62.0,30.13,North,5,0.0,2.0,93,0.06,,,0.25,,2013-04-17 21:42:00,
2013-04-17 17:53:00,64.0,62.0,30.11,North,5,0.0,1.0,94,0.10,,,0.28,,2013-04-17 21:53:00,
2013-04-17 18:02:00,64.0,62.0,30.08,North,5,0.0,1.0,94,0.08,,,0.30,,2013-04-17 22:02:00,
2013-04-17 18:12:00,64.0,62.0,30.08,North,5,0.0,1.0,94,0.08,,,0.30,,2013-04-17 22:12:00,
2013-04-17 18:22:00,64.0,63.0,30.06,North,5,2.0,6.0,95,0.07,,,0.30,,2013-04-17 22:22:00,
2013-04-17 18:33:00,64.0,63.0,30.07,North,5,0.0,4.0,95,0.05,,,0.30,,2013-04-17 22:33:00,
2013-04-17 18:42:00,64.0,63.0,30.07,North,5,0.0,4.0,95,0.05,,,0.30,,2013-04-17 22:42:00,
2013-04-17 18:53:00,64.0,63.0,30.07,North,5,1.0,8.0,95,0.01,,,0.30,,2013-04-17 22:53:00,
2013-04-17 19:02:00,64.0,63.0,30.07,North,5,0.0,3.0,95,0.00,,,0.30,,2013-04-17 23:02:00,
2013-04-17 19:12:00,64.0,63.0,30.06,North,5,0.0,1.0,95,0.00,,,0.30,,2013-04-17 23:12:00,
2013-04-17 19:22:00,64.0,63.0,30.06,North,5,0.0,1.0,95,0.00,,,0.30,,2013-04-17 23:22:00,
2013-04-17 19:32:00,64.0,63.0,30.07,North,5,1.0,3.0,95,0.00,,,0.30,,2013-04-17 23:32:00,
2013-04-17 19:42:00,63.0,62.0,30.07,North,5,0.0,1.0,95,0.00,,,0.30,,2013-04-17 23:42:00,
2013-04-17 19:52:00,63.0,62.0,30.07,North,5,0.0,1.0,95,0.00,,,0.30,,2013-04-17 23:52:00,
2013-04-17 20:02:00,63.0,62.0,30.07,North,5,0.0,2.0,96,0.00,,,0.30,,2013-04-18 00:02:00,
2013-04-17 20:12:00,63.0,62.0,30.07,North,5,0.0,2.0,96,0.00,,,0.30,,2013-04-18 00:12:00,
2013-04-17 20:22:00,63.0,62.0,30.07,North,5,0.0,1.0,96,0.00,,,0.30,,2013-04-18 00:22:00,
2013-04-17 20:32:00,63.0,62.0,30.08,North,5,0.0,0.0,96,0.00,,,0.30,,2013-04-18 00:32:00,
2013-04-17 20:42:00,63.0,62.0,30.07,North,5,0.0,0.0,96,0.00,,,0.30,,2013-04-18 00:42:00,
2013-04-17 20:52:00,63.0,62.0,30.07,North,5,0.0,0.0,96,0.00,,,0.30,,2013-04-18 00:52:00,
2013-04-17 21:02:00,63.0,62.0,30.08,North,5,0.0,0.0,96,0.00,,,0.30,,2013-04-18 01:02:00,
2013-04-17 21:12:00,62.0,61.0,30.07,North,5,0.0,0.0,96,0.00,,,0.30,,2013-04-18 01:12:00,
2013-04-17 21:22:00,62.0,61.0,30.07,North,5,0.0,0.0,96,0.00,,,0.30,,2013-04-18 01:22:00,
2013-04-17 21:32:00,62.0,61.0,30.07,North,5,0.0,0.0,96,0.00,,,0.30,,2013-04-18 01:32:00,
2013-04-17 21:42:00,62.0,61.0,30.07,North,5,0.0,0.0,96,0.00,,,0.30,,2013-04-18 01:42:00,
2013-04-17 21:52:00,62.0,61.0,30.07,North,5,0.0,0.0,96,0.00,,,0.30,,2013-04-18 01:52:00,
2013-04-17 22:02:00,62.0,61.0,30.07,North,5,0.0,0.0,96,0.00,,,0.30,,2013-04-18 02:02:00,
2013-04-17 22:12:00,62.0,61.0,30.07,North,5,0.0,0.0,96,0.00,,,0.30,,2013-04-18 02:12:00,
2013-04-17 22:22:00,62.0,61.0,30.07,North,5,0.0,0.0,96,0.00,,,0.30,,2013-04-18 02:22:00,
2013-04-17 22:32:00,62.0,61.0,30.07,North,5,0.0,0.0,96,0.00,,,0.30,,2013-04-18 02:32:00,
2013-04-17 22:42:00,62.0,61.0,30.07,North,5,0.0,0.0,96,0.00,,,0.30,,2013-04-18 02:42:00,
2013-04-17 22:52:00,62.0,61.0,30.07,North,5,0.0,0.0,96,0.00,,,0.30,,2013-04-18 02:52:00,
2013-04-17 23:02:00,62.0,61.0,30.06,North,5,0.0,0.0,96,0.00,,,0.30,,2013-04-18 03:02:00,
2013-04-17 23:12:00,61.0,60.0,30.07,North,5,0.0,2.0,96,0.00,,,0.30,,2013-04-18 03:12:00,
2013-04-17 23:22:00,61.0,60.0,30.07,North,5,0.0,2.0,96,0.00,,,0.30,,2013-04-18 03:22:00,
2013-04-17 23:33:00,61.0,60.0,30.07,North,5,0.0,0.0,97,0.00,,,0.30,,2013-04-18 03:33:00,
2013-04-17 23:43:00,61.0,60.0,30.07,North,5,0.0,1.0,97,0.00,,,0.30,,2013-04-18 03:43:00,
2013-04-17 23:53:00,61.0,60.0,30.07,North,5,0.0,1.0,97,0.00,,,0.30,,2013-04-18 03:53:00,